GOKTURK 2

Last updated on Thu Nov 21 2024 00:02:27 GMT+0000 (Coordinated Universal Time)

1 39030U 12073A 24325.55021462 .00001138 00000+0 17838-3 0 9991 2 39030 97.7292 179.4785 0001938 70.5698 289.5721 14.74474101639948
UTC large
Height (km)
Speed (km/s)
/
Latitude / Longitude
Inclination (degrees)
Orbital Period (minutes)
Azimuth
Elevation
Range (km)
Doppler Factor

Next 0 passes for location: London (51.5072 / 0.1276)

Sorry there are no passes over London.